QPF
0.00 0.00 0.00 0.00 0.00 0.00 0.00 0.00 0.00 0.00 0.00 0.00 0.00 0.00 0.00 0.00 0.00 0.00 0.00 0.00 0.00 0.00 0.00 0.00 0.00 0.00 0.00 0.00 0.00 0.00 0.00 0.00 0.00 0.00 0.00 0.00 0.00 0.00 0.00 0.00 0.00 0.00 0.00 0.00 0.00 0.00 0.00 0.00 0.00 0.00 0.00 0.00
0.00 0.00 0.00 0.00 0.00 0.00 0.00 0.00 0.00 0.00 0.00 0.00 0.00 0.00 0.00 0.00 0.00 0.00 0.00 0.00 0.00 0.00 0.00 0.00 0.00 0.00 0.00 0.00 0.00 0.00 0.00 0.00 0.00 0.00 0.00 0.00 0.00 0.00 0.00 0.00 0.00 0.00 0.00 0.00 0.00 0.00 0.00 0.00 0.00 0.00 0.00 0.00
0.00 0.00 0.00 0.00 0.00 0.00 0.00 0.00 0.00 0.00 0.00 0.00 0.00 0.00 0.00 0.00 0.00 0.00 0.00 0.00 0.00 0.00 0.00 0.00 0.00 0.00 0.00 0.00 0.00 0.00 0.00 0.00 0.00 0.00 0.00 0.00 0.00 0.00 0.00 0.00 0.00 0.00 0.00 0.00 0.00 0.00 0.00 0.00 0.00 0.00 0.00 0.00
0.00 0.00 0.00 0.00 0.00 0.00 0.00 0.00 0.00 0.00 0.00 0.00 0.00 0.00 0.00 0.00 0.00 0.00 0.00 0.00 0.00 0.00 0.00 0.00 0.00 0.00 0.00 0.00 0.00 0.00 0.00 0.00 0.00 0.00 0.00 0.00 0.00 0.00 0.00 0.00 0.00 0.00 0.00 0.00 0.00 0.00 0.00 0.00 0.00 0.00 0.00 0.00
0.00 0.00 0.00 0.00 0.00 0.00 0.00 0.00 0.00 0.00 0.00 0.00 0.00 0.00 0.00 0.00 0.00 0.00 0.00 0.00 0.00 0.00 0.00 0.00 0.00 0.00 0.00 0.00 0.00 0.00 0.00 0.00 0.00 0.00 0.00 0.00 0.00 0.00 0.00 0.00 0.00 0.00 0.00 0.00 0.00 0.00 0.00 0.00 0.00 0.00 0.00 0.00
0.00 0.00 0.00 0.00 0.00 0.00 0.00 0.00 0.00 0.00 0.00 0.00 0.00 0.00 0.00 0.00 0.00 0.00 0.00 0.00 0.00 0.00 0.00 0.00 0.00 0.00 0.00 0.00 0.00 0.00 0.00 0.00 0.00 0.00 0.00 0.00 0.00 0.00 0.00 0.00 0.00 0.00 0.00 0.00 0.00 0.00 0.00 0.00 0.00 0.00 0.00 0.00
0.00 0.00 0.00 0.00 0.00 0.00 0.00 0.00 0.00 0.00 0.00 0.00 0.00 0.00 0.00 0.00 0.00 0.00 0.00 0.00 0.00 0.00 0.00 0.00 0.00 0.00 0.00 0.00 0.00 0.00 0.00 0.00 0.00 0.00 0.00 0.00 0.00 0.00 0.00 0.00 0.00 0.00 0.00 0.00 0.00 0.00 0.00 0.00 0.00 0.00 0.00 0.00
0.00 0.00 0.00 0.00 0.00 0.00 0.00 0.00 0.00 0.00 0.00 0.00 0.00 0.00 0.00 0.00 0.00 0.00 0.00 0.00 0.00 0.00 0.00 0.00 0.00 0.00 0.00 0.00 0.00 0.00 0.00 0.00 0.00 0.00 0.00 0.00 0.00 0.00 0.00 0.00 0.00 0.00 0.00 0.00 0.00 0.00 0.00 0.00 0.00 0.00 0.00 0.00
0.00 0.00 0.00 0.00 0.00 0.00 0.00 0.00 0.00 0.00 0.00 0.00 0.00 0.00 0.00 0.00 0.00 0.00 0.00 0.00 0.00 0.00 0.00 0.00 0.00 0.00 0.00 0.00 0.00 0.00 0.00 0.00 0.00 0.00 0.00 0.00 0.00 0.00 0.00 0.00 0.00 0.00 0.00 0.00 0.00 0.00 0.00 0.00 0.00 0.00 0.00 0.00
0.00 0.00 0.00 0.00 0.00 0.00 0.00 0.00 0.00 0.00 0.00 0.00 0.00 0.00 0.00 0.00 0.00 0.00 0.00 0.00 0.00 0.00 0.00 0.00 0.00 0.00 0.00 0.00 0.00 0.00 0.00 0.00 0.00 0.00 0.00 0.00 0.00 0.00 0.00 0.00 0.00 0.00 0.00 0.00 0.00 0.00 0.00 0.00 0.00 0.00 0.00 0.00
0.00 0.00 0.00 0.00 0.00 0.00 0.00 0.00 0.00 0.00 0.00 0.00 0.00 0.00 0.00 0.00 0.00 0.00 0.00 0.00 0.00 0.00 0.00 0.00 0.00 0.00 0.00 0.00 0.00 0.00 0.00 0.00 0.00 0.00 0.00 0.00 0.00 0.00 0.00 0.00 0.00 0.00 0.00 0.00 0.00 0.00 0.00 0.00 0.00 0.00 0.00 0.00
0.00 0.00 0.00 0.00 0.00 0.00 0.00 0.00 0.00 0.00 0.00 0.00 0.00 0.00 0.00 0.00 0.00 0.00 0.00 0.00 0.00 0.00 0.00 0.00 0.00 0.00 0.00 0.00 0.00 0.00 0.00 0.00 0.00 0.00 0.00 0.00 0.00 0.00 0.00 0.00 0.00 0.00 0.00 0.00 0.00 0.00 0.00 0.00 0.00 0.00 0.00 0.00
0.00 0.00 0.00 0.00 0.00 0.00 0.00 0.00 0.00 0.00 0.00 0.00 0.00 0.00 0.00 0.00 0.00 0.00 0.00 0.00 0.00 0.00 0.00 0.00 0.00 0.00 0.00 0.00 0.00 0.00 0.00 0.00 0.00 0.00 0.00 0.00 0.00 0.00 0.00 0.00 0.00 0.00 0.00 0.00 0.00 0.00 0.00 0.00 0.00 0.00 0.00 0.00
0.00 0.00 0.00 0.00 0.00 0.00 0.00 0.00 0.00 0.00 0.00 0.00 0.00 0.00 0.00 0.00 0.00 0.00 0.00 0.00 0.00 0.00 0.00 0.00 0.00 0.00 0.00 0.00 0.00 0.00 0.00 0.00 0.00 0.00 0.00 0.00 0.00 0.00 0.00 0.00 0.00 0.00 0.00 0.00 0.00 0.00 0.00 0.00 0.00 0.00 0.00 0.00
0.00 0.00 0.00 0.00 0.00 0.00 0.00 0.00 0.00 0.00 0.00 0.00 0.00 0.00 0.00 0.00 0.00 0.00 0.00 0.00 0.00 0.00 0.00 0.00 0.00 0.00 0.00 0.00 0.00 0.00 0.00 0.00 0.00 0.00 0.00 0.00 0.00 0.00 0.00 0.00 0.00 0.00 0.00 0.00 0.00 0.00 0.00 0.00 0.00 0.00 0.00 0.00
0.00 0.00 0.00 0.00 0.00 0.00 0.00 0.00 0.00 0.00 0.00 0.00 0.00 0.00 0.00 0.00 0.00 0.00 0.00 0.00 0.00 0.00 0.00 0.00 0.00 0.00 0.00 0.00 0.00 0.00 0.00 0.00 0.00 0.00 0.00 0.00 0.00 0.00 0.00 0.00 0.00 0.00 0.00 0.00 0.00 0.00 0.00 0.00 0.00 0.00 0.00 0.00
0.00 0.00 0.00 0.00 0.00 0.00 0.00 0.00 0.00 0.00 0.00 0.00 0.00 0.00 0.00 0.00 0.00 0.00 0.00 0.00 0.00 0.00 0.00 0.00 0.00 0.00 0.00 0.00 0.00 0.00 0.00 0.00 0.00 0.00 0.00 0.00 0.00 0.00 0.00 0.00 0.00 0.00 0.00 0.00 0.00 0.00 0.00 0.00 0.00 0.00 0.00 0.00
0.00 0.00 0.00 0.00 0.00 0.00 0.00 0.00 0.00 0.00 0.00 0.00 0.00 0.00 0.00 0.00 0.00 0.00 0.00 0.00 0.00 0.00 0.00 0.00 0.00 0.00 0.00 0.00 0.00 0.00 0.00 0.00 0.00 0.00 0.00 0.00 0.00 0.00 0.00 0.00 0.00 0.00 0.00 0.00 0.00 0.00 0.00 0.00 0.00 0.00 0.00 0.00
0.00 0.00 0.00 0.00 0.00 0.00 0.00 0.00 0.00 0.00 0.00 0.00 0.00 0.00 0.00 0.00 0.00 0.00 0.00 0.00 0.00 0.00 0.00 0.00 0.00 0.00 0.00 0.00 0.00 0.00 0.00 0.00 0.00 0.00 0.00 0.00 0.00 0.00 0.00 0.00 0.00 0.00 0.00 0.00 0.00 0.00 0.00 0.00 0.00 0.00 0.00 0.00
0.00 0.00 0.00 0.00 0.00 0.00 0.00 0.00 0.00 0.00 0.00 0.00 0.00 0.00 0.00 0.00 0.00 0.00 0.00 0.00 0.00 0.00 0.00 0.00 0.00 0.00 0.00 0.00 0.00 0.00 0.00 0.00 0.00 0.00 0.00 0.00 0.00 0.00 0.00 0.00 0.00 0.00 0.00 0.00 0.00 0.00 0.00 0.00 0.00 0.00 0.00 0.00
0.00 0.00 0.00 0.00 0.00 0.00 0.00 0.00 0.00 0.00 0.00 0.00 0.00 0.00 0.00 0.00 0.00 0.00 0.00 0.00 0.00 0.00 0.00 0.00 0.00 0.00 0.00 0.00 0.00 0.00 0.00 0.00 0.00 0.00 0.00 0.00 0.00 0.00 0.00 0.00 0.00 0.00 0.00 0.00 0.00 0.00 0.00 0.00 0.00 0.00 0.00 0.00
0.00 0.00 0.00 0.00 0.00 0.00 0.00 0.00 0.00 0.00 0.00 0.00 0.00 0.00 0.00 0.00 0.00 0.00 0.00 0.00 0.00 0.00 0.00 0.00 0.00 0.00 0.00 0.00 0.00 0.00 0.00 0.00 0.00 0.00 0.00 0.00 0.00 0.00 0.00 0.00 0.00 0.00 0.00 0.00 0.00 0.00 0.00 0.00 0.00 0.00 0.00 0.00
0.00 0.00 0.00 0.00 0.00 0.00 0.00 0.00 0.00 0.00 0.00 0.00 0.00 0.00 0.00 0.00 0.00 0.00 0.00 0.00 0.00 0.00 0.00 0.00 0.00 0.00 0.00 0.00 0.00 0.00 0.00 0.00 0.00 0.00 0.00 0.00 0.00 0.00 0.00 0.00 0.00 0.00 0.00 0.00 0.00 0.00 0.00 0.00 0.00 0.00 0.00 0.00
0.00 0.00 0.00 0.00 0.00 0.00 0.00 0.00 0.00 0.00 0.00 0.00 0.00 0.00 0.00 0.00 0.00 0.00 0.00 0.00 0.00 0.00 0.00 0.00 0.00 0.00 0.00 0.00 0.00 0.00 0.00 0.00 0.00 0.00 0.00 0.00 0.00 0.00 0.00 0.00 0.00 0.00 0.00 0.00 0.00 0.00 0.00 0.00 0.00 0.00 0.00 0.00
0.00 0.00 0.00 0.00 0.00 0.00 0.00 0.00 0.00 0.00 0.00 0.00 0.00 0.00 0.00 0.00 0.00 0.00 0.00 0.00 0.00 0.00 0.00 0.00 0.00 0.00 0.00 0.00 0.00 0.00 0.00 0.00 0.00 0.00 0.00 0.00 0.00 0.00 0.00 0.00 0.00 0.00 0.00 0.00 0.00 0.00 0.00 0.00 0.00 0.00 0.00 0.00
0.00 0.00 0.00 0.00 0.00 0.00 0.00 0.00 0.00 0.00 0.00 0.00 0.00 0.00 0.00 0.00 0.00 0.00 0.00 0.00 0.00 0.00 0.00 0.00 0.00 0.00 0.00 0.00 0.00 0.00 0.00 0.00 0.00 0.00 0.00 0.00 0.00 0.00 0.00 0.00 0.00 0.00 0.00 0.00 0.00 0.00 0.00 0.00 0.00 0.00 0.00 0.00
0.00 0.00 0.00 0.00 0.00 0.00 0.00 0.00 0.00 0.00 0.00 0.00 0.00 0.00 0.00 0.00 0.00 0.00 0.00 0.00 0.00 0.00 0.00 0.00 0.00 0.00 0.00 0.00 0.00 0.00 0.00 0.00 0.00 0.00 0.00 0.00 0.00 0.00 0.00 0.00 0.00 0.00 0.00 0.00 0.00 0.00 0.00 0.00 0.00 0.00 0.00 0.00
0.00 0.00 0.00 0.00 0.00 0.00 0.00 0.00 0.00 0.00 0.00 0.00 0.00 0.00 0.00 0.00 0.00 0.00 0.00 0.00 0.00 0.00 0.00 0.00 0.00 0.00 0.00 0.00 0.00 0.00 0.00 0.00 0.00 0.00 0.00 0.00 0.00 0.00 0.00 0.00 0.00 0.00 0.00 0.00 0.00 0.00 0.00 0.00 0.00 0.00 0.00 0.00
0.00 0.00 0.00 0.00 0.00 0.00 0.00 0.00 0.00 0.00 0.00 0.00 0.00 0.00 0.00 0.00 0.00 0.00 0.00 0.00 0.00 0.00 0.00 0.00 0.00 0.00 0.00 0.00 0.00 0.00 0.00 0.00 0.00 0.00 0.00 0.00 0.00 0.00 0.00 0.00 0.00 0.00 0.00 0.00 0.00 0.00 0.00 0.00 0.00 0.00 0.00 0.00
0.00 0.00 0.00 0.00 0.00 0.00 0.00 0.00 0.00 0.00 0.00 0.00 0.00 0.00 0.00 0.00 0.00 0.00 0.00 0.00 0.00 0.00 0.00 0.00 0.00 0.00 0.00 0.00 0.00 0.00 0.00 0.00 0.00 0.00 0.00 0.00 0.00 0.00 0.00 0.00 0.00 0.00 0.00 0.00 0.00 0.00 0.00 0.00 0.00 0.00 0.00 0.00
0.00 0.00 0.00 0.00 0.00 0.00 0.00 0.00 0.00 0.00 0.00 0.00 0.00 0.00 0.00 0.00 0.00 0.00 0.00 0.00 0.00 0.00 0.00 0.00 0.00 0.00 0.00 0.00 0.00 0.00 0.00 0.00 0.00 0.00 0.00 0.00 0.00 0.00 0.00 0.00 0.00 0.00 0.00 0.00 0.00 0.00 0.00 0.00 0.00 0.00 0.00 0.00
MSLP
1027.80 1028.00 1028.16 1028.28 1028.44 1028.52 1028.68 1028.80 1028.88 1029.04 1029.12 1029.24 1029.32 1029.40 1029.48 1029.52 1029.52 1029.48 1029.44 1029.40 1029.36 1029.36 1029.36 1029.28 1029.20 1029.16 1029.12 1029.08 1029.04 1029.00 1028.96 1028.92 1028.84 1028.84 1028.80 1028.76 1028.76 1028.72 1028.72 1028.64 1028.52 1028.44 1028.36 1028.32 1028.28 1028.24 1028.12 1028.00 1027.92 1027.72 1027.44 1027.08
1028.24 1028.36 1028.48 1028.64 1028.72 1028.84 1028.96 1029.08 1029.16 1029.28 1029.40 1029.48 1029.60 1029.68 1029.76 1029.80 1029.84 1029.80 1029.76 1029.76 1029.72 1029.72 1029.72 1029.64 1029.56 1029.44 1029.36 1029.32 1029.28 1029.28 1029.24 1029.16 1029.08 1029.04 1029.00 1028.92 1028.88 1028.84 1028.84 1028.76 1028.68 1028.60 1028.52 1028.48 1028.40 1028.36 1028.20 1028.08 1027.96 1027.76 1027.48 1027.32
1028.64 1028.72 1028.80 1028.92 1029.04 1029.16 1029.24 1029.36 1029.48 1029.56 1029.68 1029.80 1029.88 1029.96 1029.96 1030.00 1030.04 1030.08 1030.08 1030.08 1030.08 1030.08 1030.08 1030.04 1029.92 1029.80 1029.68 1029.60 1029.56 1029.52 1029.44 1029.40 1029.32 1029.24 1029.24 1029.12 1029.04 1028.96 1028.88 1028.80 1028.76 1028.76 1028.64 1028.56 1028.52 1028.48 1028.32 1028.12 1027.92 1027.68 1027.48 1027.48
1028.76 1029.00 1029.12 1029.24 1029.40 1029.44 1029.52 1029.64 1029.76 1029.84 1029.96 1030.04 1030.12 1030.16 1030.12 1030.08 1030.00 1030.08 1030.16 1030.24 1030.28 1030.40 1030.40 1030.44 1030.36 1030.16 1030.00 1029.92 1029.88 1029.84 1029.76 1029.64 1029.52 1029.44 1029.40 1029.36 1029.24 1029.16 1029.04 1028.92 1028.80 1028.76 1028.68 1028.60 1028.52 1028.48 1028.36 1028.08 1027.76 1027.72 1027.68 1027.64
1028.88 1029.24 1029.32 1029.48 1029.64 1029.68 1029.76 1029.88 1029.96 1030.04 1030.08 1030.12 1030.24 1030.20 1030.16 1030.00 1029.96 1030.04 1030.16 1030.32 1030.36 1030.44 1030.60 1030.68 1030.64 1030.48 1030.36 1030.24 1030.16 1030.12 1030.08 1029.96 1029.76 1029.64 1029.56 1029.52 1029.40 1029.36 1029.20 1029.04 1028.80 1028.72 1028.72 1028.64 1028.56 1028.44 1028.32 1028.04 1027.84 1027.92 1027.88 1027.72
1028.92 1029.12 1029.20 1029.36 1029.48 1029.60 1029.76 1029.88 1029.92 1030.00 1030.04 1030.12 1030.12 1030.16 1030.04 1030.00 1030.08 1030.12 1030.32 1030.48 1030.56 1030.52 1030.60 1030.68 1030.80 1030.72 1030.56 1030.48 1030.40 1030.32 1030.24 1030.16 1030.04 1029.88 1029.76 1029.68 1029.56 1029.44 1029.32 1029.08 1028.88 1028.76 1028.72 1028.64 1028.60 1028.48 1028.32 1028.08 1028.08 1028.12 1028.00 1027.84
1028.84 1029.00 1029.16 1029.40 1029.60 1029.76 1029.84 1029.92 1029.92 1030.00 1030.12 1030.16 1030.24 1030.20 1030.08 1030.08 1030.24 1030.28 1030.44 1030.76 1030.80 1030.68 1030.68 1030.68 1030.76 1030.68 1030.60 1030.52 1030.48 1030.40 1030.24 1030.16 1030.12 1030.00 1029.88 1029.80 1029.64 1029.44 1029.36 1029.16 1029.04 1028.96 1028.88 1028.72 1028.64 1028.52 1028.36 1028.36 1028.32 1028.28 1028.12 1027.96
1028.64 1028.84 1029.00 1029.20 1029.36 1029.48 1029.64 1029.80 1029.96 1030.08 1030.16 1030.24 1030.28 1030.24 1030.20 1030.24 1030.44 1030.36 1030.28 1030.60 1030.68 1030.56 1030.32 1030.36 1030.48 1030.52 1030.44 1030.40 1030.40 1030.44 1030.16 1030.08 1030.04 1029.96 1029.88 1029.84 1029.72 1029.52 1029.48 1029.44 1029.32 1029.20 1029.08 1028.92 1028.84 1028.68 1028.64 1028.64 1028.60 1028.44 1028.20 1028.08
1028.60 1028.76 1028.92 1029.08 1029.24 1029.36 1029.48 1029.68 1029.80 1029.96 1030.16 1030.32 1030.36 1030.36 1030.32 1030.44 1030.44 1030.36 1030.36 1030.48 1030.40 1030.40 1030.44 1030.44 1030.40 1030.36 1030.36 1030.44 1030.40 1030.44 1030.28 1030.28 1030.20 1030.04 1029.96 1029.88 1029.84 1029.72 1029.72 1029.68 1029.60 1029.52 1029.40 1029.24 1029.12 1028.96 1028.92 1028.88 1028.80 1028.64 1028.44 1028.28
1028.68 1028.80 1028.88 1029.08 1029.20 1029.32 1029.48 1029.64 1029.76 1029.84 1030.04 1030.20 1030.40 1030.40 1030.40 1030.32 1030.36 1030.32 1030.36 1030.48 1030.56 1030.52 1030.48 1030.52 1030.52 1030.52 1030.52 1030.60 1030.56 1030.52 1030.48 1030.56 1030.40 1030.32 1030.20 1030.20 1030.12 1030.00 1029.96 1029.88 1029.84 1029.76 1029.64 1029.52 1029.40 1029.24 1029.20 1029.08 1028.96 1028.76 1028.56 1028.44
1028.60 1028.64 1028.84 1029.00 1029.16 1029.32 1029.48 1029.60 1029.76 1029.92 1030.08 1030.32 1030.48 1030.44 1030.44 1030.32 1030.28 1030.32 1030.32 1030.48 1030.56 1030.64 1030.60 1030.68 1030.72 1030.68 1030.68 1030.76 1030.72 1030.72 1030.68 1030.80 1030.64 1030.56 1030.48 1030.48 1030.40 1030.28 1030.20 1030.04 1030.00 1029.88 1029.80 1029.68 1029.56 1029.44 1029.36 1029.28 1029.12 1028.92 1028.76 1028.56
1028.48 1028.68 1028.92 1029.24 1029.44 1029.36 1029.56 1029.60 1029.76 1029.92 1030.16 1030.40 1030.52 1030.60 1030.56 1030.48 1030.44 1030.40 1030.48 1030.60 1030.64 1030.68 1030.72 1030.84 1030.88 1030.80 1030.80 1030.84 1030.88 1030.92 1030.88 1030.96 1030.88 1030.76 1030.72 1030.68 1030.64 1030.44 1030.36 1030.20 1030.12 1030.04 1029.92 1029.76 1029.64 1029.60 1029.52 1029.44 1029.24 1029.04 1028.88 1028.72
1028.44 1028.68 1028.92 1029.08 1029.16 1029.40 1029.64 1029.56 1029.76 1030.00 1030.20 1030.24 1030.40 1030.64 1030.72 1030.68 1030.52 1030.52 1030.56 1030.76 1030.76 1030.76 1030.88 1030.92 1031.00 1030.92 1030.96 1031.00 1031.04 1031.08 1031.08 1031.08 1031.04 1030.96 1030.92 1030.88 1030.84 1030.64 1030.52 1030.32 1030.24 1030.24 1030.04 1029.88 1029.76 1029.72 1029.68 1029.60 1029.40 1029.12 1028.96 1028.76
1028.44 1028.60 1028.84 1029.00 1029.12 1029.40 1029.60 1029.64 1029.84 1030.04 1030.00 1030.12 1030.32 1030.52 1030.76 1030.80 1030.68 1030.72 1030.68 1030.80 1030.84 1030.84 1031.00 1030.96 1031.08 1031.04 1031.08 1031.16 1031.20 1031.24 1031.32 1031.28 1031.24 1031.16 1031.08 1031.12 1031.04 1030.92 1030.76 1030.56 1030.44 1030.40 1030.20 1030.04 1029.92 1029.84 1029.84 1029.72 1029.48 1029.28 1029.04 1028.84
1028.28 1028.52 1028.68 1028.92 1029.12 1029.32 1029.44 1029.72 1029.88 1029.88 1030.00 1030.16 1030.32 1030.56 1030.84 1030.84 1030.88 1030.80 1030.88 1030.92 1030.96 1030.88 1030.96 1031.00 1031.08 1031.20 1031.24 1031.24 1031.40 1031.44 1031.56 1031.52 1031.44 1031.32 1031.28 1031.32 1031.24 1031.08 1030.92 1030.68 1030.56 1030.48 1030.36 1030.12 1030.00 1029.92 1029.92 1029.80 1029.56 1029.36 1029.16 1028.92
1028.20 1028.40 1028.60 1028.88 1029.04 1029.24 1029.44 1029.68 1029.64 1029.80 1029.96 1030.16 1030.40 1030.68 1030.80 1030.80 1030.88 1030.88 1030.96 1031.12 1031.12 1031.12 1031.12 1031.20 1031.32 1031.32 1031.48 1031.48 1031.56 1031.60 1031.72 1031.72 1031.56 1031.44 1031.36 1031.32 1031.28 1031.12 1030.92 1030.76 1030.60 1030.56 1030.40 1030.20 1030.04 1030.00 1029.92 1029.76 1029.60 1029.40 1029.16 1029.00
1028.16 1028.36 1028.64 1028.84 1028.92 1029.16 1029.48 1029.52 1029.56 1029.68 1029.88 1030.04 1030.40 1030.64 1030.80 1030.84 1030.92 1030.88 1030.88 1031.08 1031.28 1031.28 1031.24 1031.44 1031.48 1031.48 1031.56 1031.64 1031.80 1031.76 1031.84 1031.76 1031.52 1031.44 1031.40 1031.36 1031.20 1031.08 1030.96 1030.80 1030.72 1030.60 1030.44 1030.28 1030.16 1030.04 1029.96 1029.76 1029.56 1029.36 1029.20 1029.00
1028.04 1028.32 1028.52 1028.64 1028.80 1029.08 1029.36 1029.28 1029.44 1029.60 1029.76 1030.00 1030.20 1030.48 1030.76 1030.84 1030.88 1030.88 1030.92 1031.04 1031.20 1031.12 1031.16 1031.40 1031.52 1031.64 1031.68 1031.84 1031.96 1031.88 1031.88 1031.80 1031.64 1031.60 1031.64 1031.52 1031.36 1031.28 1031.04 1030.96 1030.84 1030.76 1030.60 1030.40 1030.32 1030.20 1030.04 1029.84 1029.56 1029.36 1029.16 1028.96
1027.88 1028.12 1028.32 1028.52 1028.68 1028.92 1029.08 1029.12 1029.28 1029.44 1029.64 1029.88 1030.00 1030.32 1030.60 1030.72 1030.84 1030.92 1031.00 1031.04 1031.00 1031.12 1031.12 1031.20 1031.36 1031.60 1031.72 1031.96 1031.96 1031.92 1031.96 1032.00 1031.80 1031.76 1031.88 1031.72 1031.72 1031.52 1031.32 1031.12 1031.08 1030.92 1030.76 1030.60 1030.48 1030.32 1030.12 1029.88 1029.60 1029.40 1029.12 1028.84
1027.80 1028.04 1028.20 1028.36 1028.56 1028.72 1029.00 1029.04 1029.12 1029.28 1029.52 1029.68 1029.84 1030.08 1030.36 1030.64 1030.76 1030.84 1030.92 1030.96 1030.96 1030.92 1030.96 1031.04 1031.20 1031.40 1031.76 1031.92 1031.84 1031.88 1031.96 1031.96 1031.88 1031.92 1032.08 1031.92 1031.84 1031.80 1031.64 1031.40 1031.28 1031.00 1030.92 1030.72 1030.64 1030.48 1030.20 1029.88 1029.64 1029.36 1029.04 1028.80
1027.76 1027.88 1028.04 1028.20 1028.48 1028.64 1028.88 1028.92 1029.00 1029.16 1029.36 1029.56 1029.76 1029.92 1030.20 1030.52 1030.68 1030.80 1030.88 1030.92 1030.92 1030.88 1031.00 1031.04 1031.20 1031.40 1031.76 1031.84 1031.84 1031.88 1031.96 1031.96 1031.92 1032.08 1032.20 1032.04 1031.92 1031.88 1031.84 1031.56 1031.32 1031.16 1031.00 1030.96 1030.84 1030.56 1030.24 1029.92 1029.60 1029.24 1028.92 1028.68
1027.68 1027.80 1027.92 1028.08 1028.28 1028.48 1028.68 1028.72 1028.84 1029.04 1029.28 1029.44 1029.60 1029.76 1030.00 1030.32 1030.52 1030.64 1030.76 1030.84 1030.84 1030.80 1030.92 1031.04 1031.16 1031.36 1031.68 1031.72 1031.76 1031.84 1031.88 1031.96 1032.08 1032.24 1032.24 1032.24 1032.08 1031.96 1031.88 1031.64 1031.48 1031.40 1031.24 1031.20 1030.96 1030.60 1030.20 1029.84 1029.44 1029.12 1028.84 1028.60
1027.56 1027.72 1027.80 1027.92 1028.12 1028.36 1028.48 1028.60 1028.72 1028.88 1029.08 1029.24 1029.36 1029.56 1029.80 1030.16 1030.28 1030.48 1030.64 1030.72 1030.76 1030.76 1030.88 1031.00 1031.16 1031.32 1031.56 1031.56 1031.64 1031.68 1031.72 1031.76 1031.96 1032.20 1032.36 1032.40 1032.28 1032.08 1031.92 1031.80 1031.60 1031.48 1031.40 1031.28 1030.92 1030.48 1030.00 1029.48 1029.16 1028.92 1028.76 1028.56
1027.40 1027.56 1027.64 1027.80 1028.00 1028.20 1028.28 1028.36 1028.56 1028.72 1028.84 1028.96 1029.12 1029.32 1029.64 1029.92 1030.00 1030.20 1030.40 1030.52 1030.60 1030.64 1030.64 1030.80 1030.96 1031.16 1031.40 1031.44 1031.44 1031.56 1031.64 1031.68 1031.76 1032.20 1032.36 1032.32 1032.24 1032.20 1031.96 1031.64 1031.44 1031.44 1031.56 1031.28 1030.80 1030.08 1029.44 1029.20 1028.88 1028.64 1028.56 1028.40
1027.00 1027.20 1027.40 1027.56 1027.60 1027.68 1027.80 1027.96 1028.16 1028.44 1028.56 1028.68 1028.80 1029.08 1029.40 1029.60 1029.68 1029.92 1030.16 1030.28 1030.40 1030.48 1030.52 1030.60 1030.72 1031.04 1031.20 1031.24 1031.28 1031.40 1031.52 1031.80 1032.12 1032.28 1032.32 1032.32 1032.16 1032.04 1031.96 1031.68 1031.40 1031.60 1031.68 1031.28 1030.16 1029.60 1029.52 1029.08 1028.48 1028.12 1028.28 1028.36
1026.52 1026.56 1026.64 1026.84 1027.04 1027.16 1027.24 1027.52 1027.76 1027.96 1028.08 1028.28 1028.44 1028.84 1029.12 1029.32 1029.44 1029.68 1029.92 1030.04 1030.16 1030.24 1030.36 1030.40 1030.56 1030.76 1030.88 1031.00 1031.04 1031.16 1031.48 1031.80 1032.00 1032.24 1032.32 1032.24 1032.08 1031.68 1031.76 1031.72 1031.52 1031.88 1031.68 1031.16 1030.68 1030.52 1029.84 1028.92 1028.04 1027.72 1027.92 1028.16
1025.96 1026.12 1026.28 1026.36 1026.48 1026.72 1026.80 1026.84 1027.08 1027.36 1027.52 1027.88 1028.16 1028.52 1028.80 1029.00 1029.12 1029.44 1029.64 1029.72 1029.88 1030.04 1030.16 1030.20 1030.32 1030.44 1030.64 1030.80 1030.88 1031.08 1031.36 1031.60 1031.84 1031.80 1032.08 1032.20 1032.08 1031.92 1031.68 1031.52 1031.32 1031.88 1031.88 1032.04 1031.36 1030.96 1029.96 1029.24 1028.64 1028.08 1027.56 1027.72
1025.48 1025.72 1025.88 1026.12 1026.20 1026.28 1026.32 1026.32 1026.68 1026.92 1027.12 1027.56 1027.88 1028.20 1028.44 1028.68 1028.80 1029.08 1029.28 1029.44 1029.64 1029.84 1029.96 1030.00 1030.04 1030.16 1030.32 1030.60 1030.68 1030.72 1030.76 1030.92 1031.36 1031.52 1031.76 1031.88 1032.00 1032.00 1031.96 1031.28 1031.28 1031.36 1032.08 1032.08 1031.76 1031.52 1030.44 1030.28 1029.44 1029.28 1027.24 1028.04
1025.28 1025.52 1025.76 1025.88 1026.08 1026.24 1026.20 1026.32 1026.48 1026.72 1026.88 1027.20 1027.48 1027.76 1028.00 1028.16 1028.44 1028.72 1028.96 1029.12 1029.36 1029.52 1029.68 1029.76 1029.84 1029.88 1030.00 1030.20 1030.40 1030.52 1030.52 1030.60 1030.88 1031.20 1031.48 1031.76 1031.92 1031.84 1031.80 1031.80 1031.48 1031.44 1031.56 1032.12 1032.08 1032.08 1031.40 1030.48 1029.40 1028.96 1028.80 1029.28
1024.92 1025.04 1025.24 1025.44 1025.88 1026.32 1026.20 1026.24 1026.24 1026.20 1026.24 1026.56 1026.84 1026.96 1027.20 1027.72 1028.00 1028.28 1028.56 1028.72 1028.96 1029.12 1029.32 1029.48 1029.56 1029.64 1029.72 1029.88 1030.04 1030.12 1030.16 1030.28 1030.60 1031.08 1031.28 1031.44 1031.56 1031.64 1031.76 1031.84 1031.76 1031.64 1031.20 1031.64 1032.12 1032.12 1031.92 1031.48 1031.44 1031.16 1030.72 1030.44
1024.44 1024.64 1024.68 1024.80 1025.00 1025.08 1025.12 1025.20 1025.04 1025.24 1025.56 1025.80 1026.04 1026.44 1026.64 1027.04 1027.44 1027.76 1028.00 1028.28 1028.52 1028.68 1028.88 1029.08 1029.24 1029.36 1029.44 1029.48 1029.56 1029.60 1029.76 1029.92 1030.20 1030.52 1030.96 1031.20 1031.40 1031.36 1031.48 1031.64 1031.76 1031.52 1031.40 1031.16 1031.44 1031.76 1031.92 1031.84 1031.80 1031.76 1031.72 1031.52
Thickness
5550 5547 5546 5545 5544 5543 5542 5541 5540 5539 5538 5537 5536 5536 5535 5535 5535 5535 5535 5535 5535 5536 5536 5536 5536 5536 5537 5537 5537 5538 5538 5539 5539 5539 5539 5540 5540 5542 5543 5544 5546 5548 5549 5550 5551 5552 5553 5555 5556 5558 5561 5562
5543 5542 5541 5540 5539 5538 5537 5536 5534 5533 5532 5531 5531 5530 5530 5529 5529 5529 5528 5529 5529 5529 5529 5529 5529 5530 5530 5531 5530 5531 5532 5532 5532 5532 5533 5534 5534 5535 5536 5538 5539 5540 5542 5544 5545 5546 5547 5549 5550 5552 5554 5556
5538 5537 5535 5534 5532 5532 5531 5530 5529 5528 5527 5526 5525 5524 5523 5523 5523 5522 5522 5522 5522 5521 5521 5522 5522 5522 5523 5524 5524 5524 5524 5525 5526 5526 5526 5526 5527 5529 5530 5531 5532 5533 5535 5537 5538 5539 5541 5543 5544 5546 5547 5549
5533 5531 5529 5528 5526 5526 5525 5524 5523 5522 5521 5520 5519 5519 5518 5517 5517 5517 5516 5516 5515 5515 5514 5515 5514 5515 5516 5516 5517 5517 5517 5518 5519 5519 5520 5520 5521 5522 5523 5524 5525 5526 5528 5530 5531 5533 5535 5537 5538 5539 5540 5541
5528 5525 5524 5522 5521 5520 5519 5518 5517 5516 5515 5514 5513 5512 5512 5512 5512 5511 5510 5509 5508 5508 5507 5507 5507 5508 5508 5508 5509 5510 5510 5511 5512 5512 5513 5514 5514 5515 5516 5517 5518 5519 5521 5522 5523 5525 5527 5529 5531 5532 5533 5534
5522 5520 5519 5517 5515 5514 5513 5511 5510 5509 5508 5508 5506 5506 5506 5506 5505 5504 5503 5502 5501 5501 5501 5501 5500 5500 5500 5501 5501 5502 5503 5503 5504 5505 5506 5506 5507 5508 5509 5510 5511 5512 5513 5515 5516 5518 5519 5521 5523 5524 5525 5527
5517 5515 5513 5512 5510 5508 5507 5505 5504 5504 5502 5501 5500 5499 5499 5499 5498 5497 5496 5495 5494 5495 5495 5494 5494 5494 5494 5494 5494 5494 5495 5496 5496 5497 5498 5498 5500 5501 5502 5503 5504 5504 5505 5507 5508 5510 5511 5512 5514 5515 5517 5519
5513 5511 5509 5507 5506 5503 5502 5500 5498 5497 5496 5495 5494 5493 5492 5492 5491 5490 5490 5489 5489 5488 5488 5488 5487 5487 5487 5487 5487 5487 5488 5488 5488 5489 5490 5490 5491 5493 5493 5494 5495 5495 5497 5498 5499 5501 5502 5503 5504 5506 5509 5510
5508 5506 5504 5502 5501 5499 5497 5495 5494 5492 5490 5489 5487 5487 5485 5485 5484 5484 5483 5482 5481 5481 5481 5480 5480 5480 5479 5479 5479 5479 5479 5480 5480 5481 5481 5481 5482 5483 5484 5484 5485 5486 5487 5488 5489 5491 5492 5493 5495 5497 5499 5501
5502 5500 5499 5497 5495 5493 5492 5490 5488 5486 5484 5482 5481 5480 5479 5478 5477 5476 5476 5475 5474 5473 5473 5472 5472 5471 5471 5470 5470 5470 5470 5470 5470 5471 5471 5471 5472 5473 5474 5475 5475 5476 5477 5479 5480 5481 5482 5483 5485 5487 5489 5491
5497 5495 5493 5491 5489 5487 5486 5484 5482 5481 5479 5477 5475 5474 5473 5472 5471 5470 5469 5468 5466 5466 5465 5464 5464 5463 5462 5462 5461 5461 5460 5459 5460 5461 5461 5461 5462 5463 5463 5464 5465 5466 5468 5469 5471 5471 5472 5474 5475 5477 5479 5481
5491 5489 5487 5485 5483 5482 5480 5478 5477 5475 5473 5471 5469 5467 5466 5465 5465 5464 5462 5461 5460 5459 5458 5457 5457 5456 5455 5454 5453 5453 5452 5451 5451 5451 5451 5451 5452 5453 5453 5454 5455 5455 5457 5459 5460 5462 5463 5464 5465 5467 5469 5471
5487 5484 5482 5480 5478 5476 5474 5473 5471 5469 5467 5466 5464 5462 5460 5459 5459 5458 5457 5455 5454 5453 5452 5450 5450 5450 5449 5448 5446 5446 5445 5444 5443 5443 5443 5443 5443 5443 5444 5445 5445 5446 5447 5448 5450 5451 5452 5454 5456 5457 5459 5461
5483 5481 5478 5476 5474 5471 5469 5468 5466 5464 5462 5461 5459 5456 5454 5454 5453 5452 5451 5449 5448 5447 5446 5445 5444 5443 5443 5441 5440 5439 5438 5437 5436 5436 5435 5435 5435 5435 5435 5436 5436 5436 5437 5439 5439 5440 5442 5443 5445 5447 5449 5451
5480 5478 5475 5473 5470 5468 5466 5464 5462 5460 5459 5456 5455 5452 5450 5448 5447 5446 5445 5443 5442 5442 5441 5439 5438 5437 5436 5435 5433 5432 5431 5430 5429 5429 5429 5428 5428 5428 5428 5428 5428 5428 5429 5430 5431 5432 5432 5433 5435 5437 5439 5442
5476 5474 5471 5468 5466 5464 5462 5459 5458 5456 5454 5452 5450 5447 5446 5444 5442 5441 5440 5438 5436 5436 5434 5433 5432 5430 5429 5428 5426 5425 5423 5423 5423 5423 5422 5421 5421 5421 5421 5422 5422 5421 5422 5423 5423 5423 5424 5425 5427 5428 5430 5432
5472 5470 5467 5464 5462 5459 5457 5455 5453 5452 5450 5448 5445 5442 5441 5439 5438 5436 5434 5433 5430 5430 5428 5426 5425 5424 5422 5420 5419 5417 5416 5416 5416 5415 5415 5415 5415 5415 5415 5415 5415 5414 5415 5415 5415 5415 5416 5417 5418 5420 5422 5423
5469 5466 5463 5461 5459 5455 5453 5452 5450 5448 5446 5443 5441 5438 5436 5434 5433 5431 5430 5427 5425 5424 5423 5421 5418 5417 5415 5413 5411 5411 5409 5408 5408 5408 5407 5407 5406 5406 5407 5407 5407 5407 5407 5407 5407 5407 5408 5409 5410 5411 5413 5414
5466 5462 5460 5457 5455 5453 5450 5449 5447 5445 5442 5439 5438 5435 5432 5429 5427 5425 5424 5422 5420 5418 5417 5415 5413 5410 5408 5406 5404 5403 5402 5400 5400 5399 5398 5398 5398 5397 5398 5399 5398 5398 5398 5399 5399 5398 5399 5400 5401 5403 5404 5406
5461 5459 5457 5454 5452 5449 5447 5445 5443 5441 5438 5435 5433 5430 5427 5424 5422 5419 5417 5416 5415 5413 5411 5409 5407 5404 5401 5399 5397 5396 5394 5392 5392 5391 5389 5389 5389 5388 5389 5390 5390 5389 5390 5390 5390 5390 5391 5392 5393 5395 5397 5398
5458 5455 5453 5451 5448 5445 5443 5440 5439 5436 5433 5431 5428 5426 5423 5419 5416 5414 5412 5410 5408 5407 5405 5403 5400 5398 5394 5392 5390 5389 5387 5385 5383 5382 5380 5380 5380 5379 5379 5381 5381 5381 5381 5381 5381 5381 5383 5384 5385 5387 5389 5390
5454 5452 5449 5447 5444 5441 5438 5436 5434 5432 5429 5426 5423 5421 5418 5414 5411 5409 5406 5404 5402 5400 5398 5396 5393 5391 5388 5385 5383 5382 5380 5378 5375 5373 5372 5371 5371 5371 5370 5371 5372 5372 5372 5372 5372 5374 5375 5376 5377 5379 5381 5382
5450 5448 5445 5443 5440 5436 5434 5432 5429 5426 5424 5421 5418 5416 5412 5409 5406 5403 5401 5398 5396 5394 5392 5390 5387 5384 5381 5379 5377 5375 5373 5371 5369 5365 5363 5362 5361 5362 5362 5362 5363 5363 5362 5363 5364 5367 5369 5369 5370 5371 5372 5373
5446 5444 5441 5438 5435 5433 5430 5428 5425 5422 5420 5417 5414 5411 5408 5404 5401 5398 5395 5393 5391 5388 5386 5384 5381 5378 5375 5373 5371 5369 5366 5364 5362 5358 5356 5354 5353 5353 5352 5353 5355 5354 5352 5354 5357 5360 5363 5362 5364 5365 5365 5364
5444 5441 5438 5435 5432 5430 5428 5425 5421 5417 5415 5412 5410 5407 5402 5399 5396 5394 5390 5388 5385 5383 5380 5378 5375 5372 5370 5367 5365 5363 5360 5356 5353 5350 5348 5346 5345 5345 5345 5344 5346 5344 5342 5345 5350 5353 5354 5355 5357 5359 5358 5356
5443 5439 5436 5433 5430 5428 5425 5422 5418 5414 5412 5408 5405 5401 5397 5394 5391 5388 5385 5382 5380 5377 5375 5372 5370 5367 5364 5361 5359 5356 5353 5349 5345 5343 5340 5338 5337 5337 5337 5336 5337 5335 5331 5333 5337 5339 5342 5347 5350 5351 5350 5350
5441 5437 5433 5431 5428 5424 5422 5419 5415 5411 5408 5404 5400 5396 5392 5389 5386 5383 5379 5377 5374 5371 5368 5366 5364 5361 5358 5354 5352 5349 5346 5343 5339 5336 5333 5331 5329 5328 5328 5328 5328 5327 5322 5320 5322 5325 5330 5334 5337 5338 5342 5342
5437 5433 5429 5426 5423 5420 5417 5415 5411 5406 5403 5399 5394 5390 5387 5383 5380 5377 5374 5371 5367 5364 5361 5359 5357 5354 5352 5348 5344 5342 5340 5338 5334 5330 5327 5324 5321 5319 5318 5318 5318 5317 5315 5311 5309 5311 5315 5320 5322 5325 5330 5329
5433 5428 5424 5421 5417 5413 5411 5408 5405 5402 5399 5394 5389 5386 5383 5379 5376 5372 5369 5365 5362 5358 5355 5352 5350 5347 5345 5341 5338 5335 5333 5330 5328 5324 5320 5316 5314 5312 5310 5309 5307 5307 5306 5304 5299 5297 5299 5304 5307 5311 5312 5311
5429 5424 5420 5417 5413 5409 5406 5404 5402 5400 5395 5391 5387 5384 5380 5375 5371 5367 5364 5359 5356 5353 5350 5347 5344 5340 5338 5335 5332 5329 5326 5323 5320 5316 5312 5308 5306 5304 5302 5299 5297 5296 5296 5295 5292 5288 5286 5286 5287 5290 5291 5291
5426 5422 5418 5415 5411 5408 5406 5404 5402 5398 5393 5389 5385 5381 5376 5372 5368 5363 5359 5355 5351 5347 5344 5341 5337 5334 5331 5329 5326 5323 5320 5317 5313 5309 5305 5301 5297 5296 5294 5291 5289 5288 5287 5285 5284 5282 5279 5276 5273 5272 5273 5274